,,,PA_Meas_PMT16A,,PR_Meas_QMR101_102,,RH_Meas_QMH101,,SR_Meas_QMS101,,TA_Meas_QMH101,,GenWind,,GenWind,
date,time,status,PA,status,PR,status,RH,status,SR,status,TA,status,DirAvg,status,SpdAvg,
2010-06-08, 00:00:05,VALID,1000.7,VALID,0,VALID,91.0519,VALID,0,VALID,23.1549,VALID,355,VALID,0,
2010-06-08, 00:01:05,VALID,1000.71,VALID,0,VALID,90.8611,VALID,0,VALID,23.1744,VALID,355,VALID,0,
2010-06-08, 00:02:05,VALID,1000.71,VALID,0,VALID,90.6857,VALID,0,VALID,23.1939,VALID,355,VALID,0,
2010-06-08, 00:03:05,VALID,1000.73,VALID,0,VALID,90.6399,VALID,0,VALID,23.1939,VALID,355,VALID,0,
2010-06-08, 00:04:05,VALID,1000.7,VALID,0,VALID,90.762,VALID,0,VALID,23.1939,VALID,355,VALID,0,
2010-06-08, 00:05:05,VALID,1000.7,VALID,0,VALID,90.6475,VALID,0,VALID,23.2134,VALID,355,VALID,0.307422,
2010-06-08, 00:06:05,VALID,1000.65,VALID,0,VALID,90.5407,VALID,0,VALID,23.2524,VALID,355,VALID,0.5375,
2010-06-08, 00:07:05,VALID,1000.66,VALID,0,VALID,89.9609,VALID,0,VALID,23.2719,VALID,355,VALID,0.448438,
2010-06-08, 00:08:05,VALID,1000.63,VALID,0,VALID,89.7167,VALID,0,VALID,23.2915,VALID,355,VALID,0.532422,
2010-06-08, 00:09:05,VALID,1000.59,VALID,0,VALID,89.8311,VALID,0,VALID,23.311,VALID,355,VALID,0.567187,
2010-06-08, 00:10:05,VALID,1000.6,VALID,0,VALID,89.938,VALID,0,VALID,23.3305,VALID,355,VALID,0.526172,
2010-06-08, 00:11:05,VALID,1000.59,VALID,0,VALID,89.999,VALID,0,VALID,23.3305,VALID,355,VALID,0.438672,
2010-06-08, 00:12:05,VALID,1000.59,VALID,0,VALID,89.9685,VALID,0,VALID,23.35,VALID,355,VALID,0.416016,
2010-06-08, 00:13:05,VALID,1000.54,VALID,0,VALID,89.8922,VALID,0,VALID,23.3695,VALID,355,VALID,0.348437,
2010-06-08, 00:14:05,VALID,1000.59,VALID,0,VALID,89.938,VALID,0,VALID,23.389,VALID,355,VALID,0.130469,
2010-06-08, 00:15:05,VALID,1000.56,VALID,0,VALID,90.0219,VALID,0,VALID,23.389,VALID,355,VALID,0.321094,
2010-06-08, 00:16:05,VALID,1000.57,VALID,0,VALID,89.9685,VALID,0,VALID,23.3695,VALID,355,VALID,0.454688,
2010-06-08, 00:17:05,VALID,1000.58,VALID,0,VALID,90.0295,VALID,0,VALID,23.35,VALID,355,VALID,0.309375,
2010-06-08, 00:18:05,VALID,1000.59,VALID,0,VALID,89.7091,VALID,0,VALID,23.3305,VALID,355,VALID,0.233594,
2010-06-08, 00:19:05,VALID,1000.56,VALID,0,VALID,89.9914,VALID,0,VALID,23.2915,VALID,355,VALID,0.1375,
2010-06-08, 00:20:05,VALID,1000.58,VALID,0,VALID,90.1516,VALID,0,VALID,23.2524,VALID,355,VALID,0,
2010-06-08, 00:21:05,VALID,1000.57,VALID,0,VALID,90.3576,VALID,0,VALID,23.2329,VALID,355,VALID,0.113281,
2010-06-08, 00:22:05,VALID,1000.55,VALID,0,VALID,90.5026,VALID,0,VALID,23.2134,VALID,355,VALID,0.454297,
2010-06-08, 00:23:05,VALID,1000.57,VALID,0,VALID,90.8306,VALID,0,VALID,23.1939,VALID,355,VALID,0.585156,
2010-06-08, 00:24:05,VALID,1000.59,VALID,0,VALID,91.0061,VALID,0,VALID,23.1549,VALID,355,VALID,0.625,
2010-06-08, 00:25:04,VALID,1000.58,VALID,0,VALID,91.1511,VALID,0,VALID,23.1159,VALID,33,VALID,0.719922,
2010-06-08, 00:26:04,VALID,1000.58,VALID,0,VALID,91.4715,VALID,0,VALID,23.0946,VALID,34,VALID,0.636719,
2010-06-08, 00:27:04,VALID,1000.56,VALID,0,VALID,91.5097,VALID,0,VALID,23.1159,VALID,56,VALID,0.505859,
2010-06-08, 00:28:04,VALID,1000.53,VALID,0,VALID,91.2274,VALID,0,VALID,23.1159,VALID,56,VALID,0.398438,
2010-06-08, 00:29:04,VALID,1000.52,VALID,0,VALID,90.9374,VALID,0,VALID,23.1159,VALID,56,VALID,0.45625,
2010-06-08, 00:30:04,VALID,1000.55,VALID,0,VALID,90.7162,VALID,0,VALID,23.0964,VALID,56,VALID,0.379297,
2010-06-08, 00:31:04,VALID,1000.53,VALID,0,VALID,90.7162,VALID,0,VALID,23.0786,VALID,56,VALID,0.238281,
2010-06-08, 00:32:04,VALID,1000.53,VALID,0,VALID,90.7543,VALID,0,VALID,23.0378,VALID,56,VALID,0.550391,
2010-06-08, 00:33:04,VALID,1000.52,VALID,0,VALID,91.09,VALID,0,VALID,23.0183,VALID,56,VALID,0.679297,
2010-06-08, 00:34:04,VALID,1000.52,VALID,0,VALID,91.38,VALID,0,VALID,23.0378,VALID,56,VALID,0.848437,
2010-06-08, 00:35:04,VALID,1000.5,VALID,0,VALID,91.2197,VALID,0,VALID,23.0769,VALID,54,VALID,0.916406,
2010-06-08, 00:36:04,VALID,1000.48,VALID,0,VALID,90.8917,VALID,0,VALID,23.0964,VALID,54,VALID,0.987109,
2010-06-08, 00:37:04,VALID,1000.47,VALID,0,VALID,90.6551,VALID,0,VALID,23.0573,VALID,55,VALID,0.989844,
2010-06-08, 00:38:04,VALID,1000.47,VALID,0,VALID,90.823,VALID,0,VALID,23.0378,VALID,55,VALID,1.24844,
2010-06-08, 00:39:04,VALID,1000.43,VALID,0,VALID,91.1816,VALID,0,VALID,22.9988,VALID,58,VALID,1.08945,
2010-06-08, 00:40:04,VALID,1000.4,VALID,0,VALID,91.2655,VALID,0,VALID,22.9988,VALID,61,VALID,0.907422,
2010-06-08, 00:41:04,VALID,1000.41,VALID,0,VALID,91.2655,VALID,0,VALID,22.9403,VALID,64,VALID,0.678906,
2010-06-08, 00:42:04,VALID,1000.38,VALID,0,VALID,91.3037,VALID,0,VALID,22.9208,VALID,64,VALID,0.523828,
2010-06-08, 00:43:04,VALID,1000.33,VALID,0,VALID,91.4257,VALID,0,VALID,22.8818,VALID,64,VALID,0.424609,
2010-06-08, 00:44:04,VALID,1000.35,VALID,0,VALID,91.4944,VALID,0,VALID,22.8623,VALID,64,VALID,0.165234,
2010-06-08, 00:45:04,VALID,1000.35,VALID,0,VALID,91.647,VALID,0,VALID,22.8232,VALID,64,VALID,0.287891,
2010-06-08, 00:46:04,VALID,1000.32,VALID,0,VALID,91.914,VALID,0,VALID,22.8427,VALID,64,VALID,0.307422,
2010-06-08, 00:47:04,VALID,1000.34,VALID,0,VALID,92.0285,VALID,0,VALID,22.8232,VALID,64,VALID,0.283203,
2010-06-08, 00:48:04,VALID,1000.35,VALID,0,VALID,92.1353,VALID,0,VALID,22.8232,VALID,64,VALID,0.0878906,
2010-06-08, 00:49:04,VALID,1000.31,VALID,0,VALID,92.1734,VALID,0,VALID,22.8232,VALID,64,VALID,0.028125,
2010-06-08, 00:50:04,VALID,1000.33,VALID,0,VALID,92.1811,VALID,0,VALID,22.8427,VALID,64,VALID,0.188281,
2010-06-08, 00:51:04,VALID,1000.31,VALID,0,VALID,92.2726,VALID,0,VALID,22.8427,VALID,64,VALID,0.408594,
2010-06-08, 00:52:04,VALID,1000.33,VALID,0,VALID,92.2879,VALID,0,VALID,22.8232,VALID,64,VALID,0.219531,
2010-06-08, 00:53:04,VALID,1000.29,VALID,0,VALID,92.2574,VALID,0,VALID,22.8037,VALID,64,VALID,0,
2010-06-08, 00:54:04,VALID,1000.27,VALID,0,VALID,92.2955,VALID,0,VALID,22.8037,VALID,64,VALID,0,
2010-06-08, 00:55:04,VALID,1000.24,VALID,0,VALID,92.3413,VALID,0,VALID,22.8037,VALID,64,VALID,0,
2010-06-08, 00:56:04,VALID,1000.24,VALID,0,VALID,92.3337,VALID,0,VALID,22.7842,VALID,64,VALID,0,
2010-06-08, 00:57:04,VALID,1000.19,VALID,0,VALID,92.326,VALID,0,VALID,22.7842,VALID,63,VALID,0.541406,
2010-06-08, 00:58:04,VALID,1000.19,VALID,0,VALID,92.3718,VALID,0,VALID,22.7842,VALID,30,VALID,0.614453,
2010-06-08, 00:59:04,VALID,1000.22,VALID,0,VALID,92.3337,VALID,0,VALID,22.7647,VALID,30,VALID,0.576172,
2010-06-08, 01:00:04,VALID,1000.18,VALID,0,VALID,92.3794,VALID,0,VALID,22.7647,VALID,30,VALID,0.777344,
2010-06-08, 01:01:04,VALID,1000.19,VALID,0,VALID,92.3871,VALID,0,VALID,22.7647,VALID,27,VALID,0.852344,
2010-06-08, 01:02:04,VALID,1000.14,VALID,0,VALID,92.4634,VALID,0,VALID,22.7842,VALID,26,VALID,0.633984,
2010-06-08, 01:03:04,VALID,1000.16,VALID,0,VALID,92.4481,VALID,0,VALID,22.825,VALID,26,VALID,0.384766,
2010-06-08, 01:04:04,VALID,1000.15,VALID,0,VALID,92.2726,VALID,0,VALID,22.8037,VALID,26,VALID,0.530469,
2010-06-08, 01:05:04,VALID,1000.18,VALID,0,VALID,92.1811,VALID,0,VALID,22.8037,VALID,26,VALID,0.490625,
2010-06-08, 01:06:04,VALID,1000.14,VALID,0,VALID,92.1887,VALID,0,VALID,22.8037,VALID,26,VALID,0.378125,
2010-06-08, 01:07:04,VALID,1000.13,VALID,0,VALID,92.1734,VALID,0,VALID,22.7842,VALID,26,VALID,0.291406,
2010-06-08, 01:08:04,VALID,1000.13,VALID,0,VALID,92.1277,VALID,0,VALID,22.7647,VALID,26,VALID,0.155859,
2010-06-08, 01:09:04,VALID,1000.13,VALID,0,VALID,92.1429,VALID,0,VALID,22.7452,VALID,26,VALID,0,
2010-06-08, 01:10:04,VALID,1000.12,VALID,0,VALID,92.1963,VALID,0,VALID,22.7452,VALID,26,VALID,0,
2010-06-08, 01:11:04,VALID,1000.11,VALID,0,VALID,92.2879,VALID,0,VALID,22.7452,VALID,26,VALID,0.252344,
2010-06-08, 01:12:04,VALID,1000.13,VALID,0,VALID,92.3413,VALID,0,VALID,22.7257,VALID,26,VALID,0.451562,
2010-06-08, 01:13:04,VALID,1000.11,VALID,0,VALID,92.326,VALID,0,VALID,22.7257,VALID,26,VALID,0.696484,
2010-06-08, 01:14:04,VALID,1000.1,VALID,0,VALID,92.1048,VALID,0,VALID,22.7062,VALID,26,VALID,0.747266,
2010-06-08, 01:15:04,VALID,1000.08,VALID,0,VALID,92.265,VALID,0,VALID,22.7062,VALID,26,VALID,0.65625,
2010-06-08, 01:16:04,VALID,1000.04,VALID,0,VALID,92.2574,VALID,0,VALID,22.6867,VALID,26,VALID,0.387891,
2010-06-08, 01:17:04,VALID,1000.03,VALID,0,VALID,92.3337,VALID,0,VALID,22.7257,VALID,26,VALID,0.401172,
2010-06-08, 01:18:04,VALID,1000.01,VALID,0,VALID,92.4557,VALID,0,VALID,22.7062,VALID,26,VALID,0.432422,
2010-06-08, 01:19:04,VALID,999.995,VALID,0,VALID,92.265,VALID,0,VALID,22.7257,VALID,26,VALID,0.730469,
2010-06-08, 01:20:04,VALID,1000.01,VALID,0,VALID,92.0056,VALID,0.112286,VALID,22.6867,VALID,25,VALID,0.783203,
2010-06-08, 01:21:04,VALID,999.984,VALID,0,VALID,92.0361,VALID,0,VALID,22.6672,VALID,25,VALID,0.613281,
2010-06-08, 01:22:04,VALID,999.98,VALID,0,VALID,92.0437,VALID,0,VALID,22.6282,VALID,25,VALID,0.453906,
2010-06-08, 01:23:04,VALID,999.966,VALID,0,VALID,91.9598,VALID,0,VALID,22.6087,VALID,25,VALID,0.373437,
2010-06-08, 01:24:04,VALID,999.949,VALID,0,VALID,92.2955,VALID,0,VALID,22.6282,VALID,25,VALID,0.23125,
2010-06-08, 01:25:04,VALID,999.95,VALID,0,VALID,92.3642,VALID,0,VALID,22.6282,VALID,25,VALID,0.294922,
2010-06-08, 01:26:04,VALID,999.94,VALID,0,VALID,92.532,VALID,0.112286,VALID,22.6477,VALID,25,VALID,0.4,
2010-06-08, 01:27:04,VALID,999.933,VALID,0,VALID,92.5397,VALID,0,VALID,22.6672,VALID,25,VALID,0.348437,
2010-06-08, 01:28:04,VALID,999.934,VALID,0,VALID,92.5626,VALID,0,VALID,22.6867,VALID,25,VALID,0.379297,
2010-06-08, 01:29:04,VALID,999.935,VALID,0,VALID,92.616,VALID,0,VALID,22.6867,VALID,25,VALID,0.354688,
2010-06-08, 01:30:04,VALID,999.908,VALID,0,VALID,92.7151,VALID,0,VALID,22.7062,VALID,25,VALID,0.451562,
2010-06-08, 01:31:04,VALID,999.904,VALID,0,VALID,92.7762,VALID,0,VALID,22.7647,VALID,25,VALID,0.466797,
2010-06-08, 01:32:04,VALID,999.939,VALID,0,VALID,92.6923,VALID,0,VALID,22.7647,VALID,25,VALID,0.536328,
2010-06-08, 01:33:04,VALID,999.913,VALID,0,VALID,92.4939,VALID,0,VALID,22.7842,VALID,25,VALID,0.678906,
2010-06-08, 01:34:04,VALID,999.935,VALID,0,VALID,92.4023,VALID,0,VALID,22.8037,VALID,25,VALID,0.481641,
2010-06-08, 01:35:04,VALID,999.911,VALID,0,VALID,92.0209,VALID,0,VALID,22.8232,VALID,25,VALID,0.453906,
2010-06-08, 01:36:04,VALID,999.92,VALID,0,VALID,91.6317,VALID,0,VALID,22.8232,VALID,36,VALID,0.714063,
2010-06-08, 01:37:04,VALID,999.901,VALID,0,VALID,91.4486,VALID,0,VALID,22.8623,VALID,46,VALID,0.756641,
2010-06-08, 01:38:04,VALID,999.907,VALID,0,VALID,91.2731,VALID,0,VALID,22.9225,VALID,46,VALID,0.567187,
2010-06-08, 01:39:04,VALID,999.93,VALID,0,VALID,90.9832,VALID,0,VALID,22.9208,VALID,46,VALID,0.485547,
2010-06-08, 01:40:04,VALID,999.898,VALID,0,VALID,90.8001,VALID,0,VALID,22.9403,VALID,46,VALID,0.432031,
2010-06-08, 01:41:04,VALID,999.92,VALID,0,VALID,90.7238,VALID,0,VALID,22.9385,VALID,46,VALID,0.582812,
2010-06-08, 01:42:04,VALID,999.893,VALID,0,VALID,90.6246,VALID,0,VALID,22.9403,VALID,46,VALID,0.613281,
2010-06-08, 01:43:04,VALID,999.908,VALID,0,VALID,90.4568,VALID,0,VALID,22.9403,VALID,46,VALID,0.466406,
2010-06-08, 01:44:04,VALID,999.927,VALID,0,VALID,90.5865,VALID,0,VALID,22.9208,VALID,46,VALID,0.408203,
2010-06-08, 01:45:04,VALID,999.915,VALID,0,VALID,90.7238,VALID,0,VALID,22.9208,VALID,46,VALID,0.325,
2010-06-08, 01:46:04,VALID,999.901,VALID,0,VALID,90.8154,VALID,0,VALID,22.8623,VALID,46,VALID,0.158984,
2010-06-08, 01:47:04,VALID,999.898,VALID,0,VALID,91.029,VALID,0,VALID,22.8427,VALID,46,VALID,0.0664063,
2010-06-08, 01:48:04,VALID,999.92,VALID,0,VALID,91.174,VALID,0,VALID,22.8427,VALID,46,VALID,0,
2010-06-08, 01:49:04,VALID,999.893,VALID,0,VALID,91.3723,VALID,0,VALID,22.8037,VALID,46,VALID,0.028125,
2010-06-08, 01:50:04,VALID,999.89,VALID,0,VALID,91.5097,VALID,0,VALID,22.786,VALID,46,VALID,0.181641,
2010-06-08, 01:51:04,VALID,999.858,VALID,0,VALID,91.6317,VALID,0,VALID,22.7452,VALID,46,VALID,0.3125,
2010-06-08, 01:52:04,VALID,999.871,VALID,0,VALID,91.708,VALID,0,VALID,22.7257,VALID,46,VALID,0.555859,
2010-06-08, 01:53:04,VALID,999.852,VALID,0,VALID,91.8148,VALID,0,VALID,22.7062,VALID,38,VALID,0.84375,
2010-06-08, 01:54:04,VALID,999.826,VALID,0,VALID,91.8683,VALID,0,VALID,22.6477,VALID,36,VALID,0.771094,
2010-06-08, 01:55:04,VALID,999.856,VALID,0,VALID,91.9445,VALID,0,VALID,22.6477,VALID,36,VALID,0.637109,
2010-06-08, 01:56:04,VALID,999.843,VALID,0,VALID,91.9827,VALID,0,VALID,22.6087,VALID,36,VALID,0.658203,
2010-06-08, 01:57:04,VALID,999.829,VALID,0,VALID,92.0285,VALID,0,VALID,22.5892,VALID,36,VALID,0.540625,
2010-06-08, 01:58:04,VALID,999.836,VALID,0,VALID,91.998,VALID,0,VALID,22.5696,VALID,36,VALID,0.511719,
2010-06-08, 01:59:04,VALID,999.84,VALID,0,VALID,91.9751,VALID,0,VALID,22.5306,VALID,36,VALID,0.459375,
2010-06-08, 02:00:04,VALID,999.785,VALID,0,VALID,91.9293,VALID,0,VALID,22.5111,VALID,36,VALID,0.541797,
2010-06-08, 02:01:04,VALID,999.813,VALID,0,VALID,91.9674,VALID,0,VALID,22.4721,VALID,36,VALID,0.582812,
2010-06-08, 02:02:04,VALID,999.768,VALID,0,VALID,92.1124,VALID,0,VALID,22.4721,VALID,36,VALID,0.549219,
2010-06-08, 02:03:04,VALID,999.801,VALID,0,VALID,92.1811,VALID,0,VALID,22.4721,VALID,36,VALID,0.589063,
2010-06-08, 02:04:04,VALID,999.814,VALID,0,VALID,92.2345,VALID,0,VALID,22.4721,VALID,36,VALID,0.545703,
2010-06-08, 02:05:04,VALID,999.804,VALID,0,VALID,92.2879,VALID,0,VALID,22.4916,VALID,36,VALID,0.432422,
2010-06-08, 02:06:04,VALID,999.796,VALID,0,VALID,92.3108,VALID,0,VALID,22.5111,VALID,36,VALID,0.535547,
2010-06-08, 02:07:04,VALID,999.747,VALID,0,VALID,92.2955,VALID,0,VALID,22.5111,VALID,31,VALID,0.83125,
2010-06-08, 02:08:04,VALID,999.713,VALID,0,VALID,92.2421,VALID,0,VALID,22.5111,VALID,26,VALID,0.896875,
2010-06-08, 02:09:04,VALID,999.695,VALID,0,VALID,92.2345,VALID,0,VALID,22.4916,VALID,21,VALID,0.978516,
2010-06-08, 02:10:04,VALID,999.703,VALID,0,VALID,92.2574,VALID,0,VALID,22.4916,VALID,15,VALID,0.961719,
2010-06-08, 02:11:04,VALID,999.707,VALID,0,VALID,92.4176,VALID,0,VALID,22.4916,VALID,12,VALID,0.892187,
2010-06-08, 02:12:04,VALID,999.705,VALID,0,VALID,92.41,VALID,0,VALID,22.4916,VALID,12,VALID,0.6125,
2010-06-08, 02:13:04,VALID,999.711,VALID,0,VALID,92.3718,VALID,0,VALID,22.5128,VALID,12,VALID,0.466016,
2010-06-08, 02:14:04,VALID,999.685,VALID,0,VALID,92.3489,VALID,0,VALID,22.4721,VALID,12,VALID,0.538281,
2010-06-08, 02:15:04,VALID,999.72,VALID,0,VALID,92.3947,VALID,0,VALID,22.4916,VALID,12,VALID,0.450781,
2010-06-08, 02:16:04,VALID,999.696,VALID,0,VALID,92.4023,VALID,0,VALID,22.4721,VALID,12,VALID,0.583594,
2010-06-08, 02:17:04,VALID,999.713,VALID,0,VALID,92.4176,VALID,0,VALID,22.4721,VALID,12,VALID,0.59375,
2010-06-08, 02:18:04,VALID,999.687,VALID,0,VALID,92.3871,VALID,0,VALID,22.4933,VALID,12,VALID,0.568359,
2010-06-08, 02:19:04,VALID,999.678,VALID,0,VALID,92.4405,VALID,0,VALID,22.4721,VALID,12,VALID,0.595703,
2010-06-08, 02:20:04,VALID,999.69,VALID,0,VALID,92.3184,VALID,0,VALID,22.4916,VALID,12,VALID,0.772266,
2010-06-08, 02:21:04,VALID,999.685,VALID,0,VALID,92.2116,VALID,0,VALID,22.4721,VALID,12,VALID,0.660547,
2010-06-08, 02:22:04,VALID,999.713,VALID,0,VALID,92.2803,VALID,0,VALID,22.4916,VALID,14,VALID,0.842969,
2010-06-08, 02:23:04,VALID,999.706,VALID,0,VALID,92.2192,VALID,0,VALID,22.4704,VALID,28,VALID,0.841016,
2010-06-08, 02:24:04,VALID,999.725,VALID,0,VALID,92.1811,VALID,0,VALID,22.5111,VALID,28,VALID,0.880078,
2010-06-08, 02:25:04,VALID,999.71,VALID,0,VALID,92.1124,VALID,0,VALID,22.4916,VALID,28,VALID,1.00547,
2010-06-08, 02:26:04,VALID,999.679,VALID,0,VALID,91.9598,VALID,0,VALID,22.4916,VALID,28,VALID,1.06055,
2010-06-08, 02:27:04,VALID,999.713,VALID,0,VALID,91.9293,VALID,0,VALID,22.4721,VALID,27,VALID,1.07422,
2010-06-08, 02:28:04,VALID,999.702,VALID,0,VALID,91.8377,VALID,0,VALID,22.4721,VALID,27,VALID,0.914453,
2010-06-08, 02:29:04,VALID,999.687,VALID,0,VALID,91.9064,VALID,0,VALID,22.4526,VALID,27,VALID,1.04375,
2010-06-08, 02:30:04,VALID,999.675,VALID,0,VALID,91.9217,VALID,0,VALID,22.4526,VALID,27,VALID,0.978906,
2010-06-08, 02:31:04,VALID,999.72,VALID,0,VALID,91.8377,VALID,0,VALID,22.4526,VALID,27,VALID,0.942969,
2010-06-08, 02:32:04,VALID,999.704,VALID,0,VALID,91.7385,VALID,0,VALID,22.4526,VALID,27,VALID,0.878906,
2010-06-08, 02:33:04,VALID,999.717,VALID,0,VALID,91.6775,VALID,0,VALID,22.4526,VALID,27,VALID,0.776953,
2010-06-08, 02:34:04,VALID,999.713,VALID,0,VALID,91.6241,VALID,0,VALID,22.4721,VALID,36,VALID,0.761719,
2010-06-08, 02:35:04,VALID,999.715,VALID,0,VALID,91.5631,VALID,0,VALID,22.4526,VALID,36,VALID,0.799219,
2010-06-08, 02:36:04,VALID,999.718,VALID,0,VALID,91.4868,VALID,0,VALID,22.5128,VALID,38,VALID,0.646094,
2010-06-08, 02:37:04,VALID,999.71,VALID,0,VALID,91.3266,VALID,0,VALID,22.5111,VALID,42,VALID,0.345313,
2010-06-08, 02:38:04,VALID,999.729,VALID,0,VALID,91.3342,VALID,0,VALID,22.5306,VALID,42,VALID,0.403516,
2010-06-08, 02:39:04,VALID,999.686,VALID,0,VALID,91.4639,VALID,0,VALID,22.5289,VALID,42,VALID,0.433594,
2010-06-08, 02:40:04,VALID,999.722,VALID,0,VALID,91.4486,VALID,0,VALID,22.5501,VALID,42,VALID,0.558203,
2010-06-08, 02:41:04,VALID,999.697,VALID,0,VALID,91.3342,VALID,0,VALID,22.5892,VALID,42,VALID,0.650391,
2010-06-08, 02:42:04,VALID,999.714,VALID,0,VALID,91.2426,VALID,0,VALID,22.6087,VALID,43,VALID,0.710156,
2010-06-08, 02:43:04,VALID,999.686,VALID,0,VALID,90.9756,VALID,0,VALID,22.6282,VALID,45,VALID,0.826953,
2010-06-08, 02:44:04,VALID,999.712,VALID,0,VALID,90.9222,VALID,0,VALID,22.6477,VALID,50,VALID,0.835547,
2010-06-08, 02:45:04,VALID,999.707,VALID,0,VALID,90.9222,VALID,0,VALID,22.6477,VALID,51,VALID,0.853125,
2010-06-08, 02:46:04,VALID,999.707,VALID,0,VALID,90.968,VALID,0,VALID,22.6282,VALID,51,VALID,0.702344,
2010-06-08, 02:47:04,VALID,999.742,VALID,0,VALID,90.9909,VALID,0,VALID,22.6282,VALID,51,VALID,0.663281,
2010-06-08, 02:48:04,VALID,999.729,VALID,0,VALID,91.0595,VALID,0,VALID,22.6282,VALID,51,VALID,0.542188,
2010-06-08, 02:49:04,VALID,999.728,VALID,0,VALID,91.1816,VALID,0,VALID,22.6494,VALID,51,VALID,0.566406,
2010-06-08, 02:50:04,VALID,999.736,VALID,0,VALID,91.1511,VALID,0,VALID,22.6282,VALID,51,VALID,0.544922,
2010-06-08, 02:51:04,VALID,999.75,VALID,0,VALID,91.1511,VALID,0,VALID,22.5892,VALID,51,VALID,0.509766,
2010-06-08, 02:52:04,VALID,999.753,VALID,0,VALID,91.2197,VALID,0,VALID,22.5696,VALID,51,VALID,0.500391,
2010-06-08, 02:53:04,VALID,999.732,VALID,0,VALID,91.3342,VALID,0,VALID,22.5892,VALID,51,VALID,0.398438,
2010-06-08, 02:54:04,VALID,999.732,VALID,0,VALID,91.4334,VALID,0,VALID,22.5892,VALID,51,VALID,0.316797,
2010-06-08, 02:55:04,VALID,999.696,VALID,0,VALID,91.4181,VALID,0,VALID,22.5696,VALID,51,VALID,0.252344,
2010-06-08, 02:56:04,VALID,999.664,VALID,0,VALID,91.3952,VALID,0,VALID,22.5696,VALID,51,VALID,0.302344,
2010-06-08, 02:57:04,VALID,999.632,VALID,0,VALID,91.5478,VALID,0,VALID,22.5696,VALID,51,VALID,0.307422,
2010-06-08, 02:58:04,VALID,999.638,VALID,0,VALID,91.6394,VALID,0,VALID,22.5501,VALID,51,VALID,0.225391,
2010-06-08, 02:59:04,VALID,999.602,VALID,0,VALID,91.6928,VALID,0,VALID,22.5501,VALID,51,VALID,0.127344,
2010-06-08, 03:00:04,VALID,999.592,VALID,0,VALID,91.7004,VALID,0,VALID,22.5501,VALID,51,VALID,0.28125,
2010-06-08, 03:01:04,VALID,999.611,VALID,0,VALID,91.6623,VALID,0,VALID,22.5306,VALID,51,VALID,0,
2010-06-08, 03:02:04,VALID,999.62,VALID,0,VALID,91.6623,VALID,0,VALID,22.5306,VALID,51,VALID,0,
2010-06-08, 03:03:04,VALID,999.598,VALID,0,VALID,91.7767,VALID,0,VALID,22.5306,VALID,51,VALID,0.323828,
2010-06-08, 03:04:04,VALID,999.636,VALID,0,VALID,91.8988,VALID,0,VALID,22.5306,VALID,51,VALID,0.411719,
2010-06-08, 03:05:04,VALID,999.643,VALID,0,VALID,91.9598,VALID,0,VALID,22.5111,VALID,51,VALID,0.648828,
2010-06-08, 03:06:04,VALID,999.603,VALID,0,VALID,91.9217,VALID,0,VALID,22.5306,VALID,50,VALID,0.660156,
2010-06-08, 03:07:04,VALID,999.651,VALID,0,VALID,91.7767,VALID,0,VALID,22.5306,VALID,40,VALID,0.748047,
2010-06-08, 03:08:04,VALID,999.659,VALID,0,VALID,91.647,VALID,0,VALID,22.5306,VALID,40,VALID,0.779297,
2010-06-08, 03:09:04,VALID,999.643,VALID,0,VALID,91.7004,VALID,0,VALID,22.5306,VALID,40,VALID,0.626172,
2010-06-08, 03:10:04,VALID,999.65,VALID,0,VALID,91.5936,VALID,0,VALID,22.5306,VALID,40,VALID,0.554688,
2010-06-08, 03:11:04,VALID,999.634,VALID,0,VALID,91.5783,VALID,0,VALID,22.5111,VALID,40,VALID,0.595703,
2010-06-08, 03:12:04,VALID,999.656,VALID,0,VALID,91.7996,VALID,0,VALID,22.5111,VALID,40,VALID,0.5875,
2010-06-08, 03:13:04,VALID,999.678,VALID,0,VALID,91.9598,VALID,0,VALID,22.5306,VALID,40,VALID,0.54375,
2010-06-08, 03:14:04,VALID,999.662,VALID,0,VALID,91.8835,VALID,0,VALID,22.5111,VALID,40,VALID,0.623438,
2010-06-08, 03:15:04,VALID,999.654,VALID,0,VALID,91.9293,VALID,0,VALID,22.4916,VALID,40,VALID,0.663672,
2010-06-08, 03:16:04,VALID,999.661,VALID,0,VALID,92.0132,VALID,0,VALID,22.4916,VALID,40,VALID,0.670313,
2010-06-08, 03:17:04,VALID,999.666,VALID,0,VALID,92.0895,VALID,0,VALID,22.4916,VALID,40,VALID,0.558984,
2010-06-08, 03:18:04,VALID,999.671,VALID,0,VALID,92.059,VALID,0,VALID,22.4916,VALID,40,VALID,0.410547,
2010-06-08, 03:19:04,VALID,999.702,VALID,0,VALID,92.0132,VALID,0,VALID,22.4721,VALID,40,VALID,0.39375,
2010-06-08, 03:20:04,VALID,999.717,VALID,0,VALID,92.1658,VALID,0,VALID,22.4721,VALID,40,VALID,0.371094,
2010-06-08, 03:21:04,VALID,999.706,VALID,0,VALID,92.1506,VALID,0,VALID,22.4331,VALID,40,VALID,0.456641,
2010-06-08, 03:22:04,VALID,999.708,VALID,0,VALID,92.1887,VALID,0,VALID,22.4331,VALID,40,VALID,0.608984,
2010-06-08, 03:23:04,VALID,999.718,VALID,0,VALID,92.4328,VALID,0,VALID,22.4314,VALID,40,VALID,0.680078,
2010-06-08, 03:24:04,VALID,999.721,VALID,0,VALID,92.5473,VALID,0,VALID,22.4509,VALID,40,VALID,0.630859,
2010-06-08, 03:25:04,VALID,999.71,VALID,0,VALID,92.4328,VALID,0,VALID,22.4526,VALID,40,VALID,0.647656,
2010-06-08, 03:26:04,VALID,999.713,VALID,0,VALID,92.2879,VALID,0,VALID,22.4314,VALID,40,VALID,0.547266,
2010-06-08, 03:27:04,VALID,999.701,VALID,0,VALID,92.1734,VALID,0,VALID,22.4314,VALID,40,VALID,0.508594,
2010-06-08, 03:28:04,VALID,999.708,VALID,0,VALID,92.2268,VALID,0,VALID,22.4331,VALID,40,VALID,0.472656,
2010-06-08, 03:29:04,VALID,999.671,VALID,0,VALID,92.4786,VALID,0,VALID,22.4509,VALID,40,VALID,0.579687,
2010-06-08, 03:30:04,VALID,999.65,VALID,0,VALID,92.6694,VALID,0,VALID,22.4704,VALID,40,VALID,0.427734,
2010-06-08, 03:31:04,VALID,999.666,VALID,0,VALID,92.5168,VALID,0,VALID,22.5111,VALID,40,VALID,0.271094,
2010-06-08, 03:32:04,VALID,999.652,VALID,0,VALID,92.4939,VALID,0,VALID,22.5306,VALID,40,VALID,0.330078,
2010-06-08, 03:33:04,VALID,999.627,VALID,0,VALID,92.4328,VALID,0,VALID,22.5306,VALID,40,VALID,0.144531,
2010-06-08, 03:34:04,VALID,999.623,VALID,0,VALID,92.4176,VALID,0,VALID,22.5128,VALID,40,VALID,0,
2010-06-08, 03:35:04,VALID,999.618,VALID,0,VALID,92.4481,VALID,0,VALID,22.5323,VALID,40,VALID,0,
2010-06-08, 03:36:04,VALID,999.637,VALID,0,VALID,92.4786,VALID,0,VALID,22.5323,VALID,40,VALID,0,
2010-06-08, 03:37:04,VALID,999.648,VALID,0,VALID,92.4328,VALID,0,VALID,22.5128,VALID,40,VALID,0,
2010-06-08, 03:38:04,VALID,999.65,VALID,0,VALID,92.4481,VALID,0,VALID,22.4933,VALID,40,VALID,0,
2010-06-08, 03:39:04,VALID,999.68,VALID,0,VALID,92.6312,VALID,0,VALID,22.4933,VALID,40,VALID,0.0769531,
2010-06-08, 03:40:04,VALID,999.683,VALID,0,VALID,92.6923,VALID,0,VALID,22.5128,VALID,40,VALID,0.154297,
2010-06-08, 03:41:04,VALID,999.688,VALID,0,VALID,92.6541,VALID,0,VALID,22.5111,VALID,40,VALID,0.367969,
2010-06-08, 03:42:04,VALID,999.65,VALID,0,VALID,92.6694,VALID,0,VALID,22.5323,VALID,40,VALID,0.242969,
2010-06-08, 03:43:04,VALID,999.677,VALID,0,VALID,92.7609,VALID,0,VALID,22.5696,VALID,40,VALID,0.259375,
2010-06-08, 03:44:04,VALID,999.683,VALID,0,VALID,92.6923,VALID,0,VALID,22.5909,VALID,40,VALID,0.31875,
2010-06-08, 03:45:04,VALID,999.677,VALID,0,VALID,92.6007,VALID,0,VALID,22.6282,VALID,40,VALID,0.195313,
2010-06-08, 03:46:04,VALID,999.693,VALID,0,VALID,92.5473,VALID,0,VALID,22.6689,VALID,40,VALID,0,
2010-06-08, 03:47:04,VALID,999.675,VALID,0,VALID,92.5626,VALID,0,VALID,22.6884,VALID,40,VALID,0.294141,